Location: Unspecified
(0.0000°N, 0.0000°E)
Time: 11:16:06
(UTC+00:00)

DMSP 5D-3 F18 (USA 210) - Visible Passes

Search period start: 14 December 2018 00:00
Search period end: 24 December 2018 00:00
Orbit: 842 x 855 km, 98.6° (Epoch: 08 December)

Date Brightness Start Highest point End Pass type
(mag) Time Alt. Az. Time Alt. Az. Time Alt. Az.
14 Dec 7.7 18:39:21 10° SW 18:42:47 17° WSW 18:46:13 10° WNW visible
15 Dec 7.5 18:26:04 10° SSW 18:30:22 24° WSW 18:34:41 10° NW visible
16 Dec 6.9 18:13:06 10° SSW 18:17:59 32° WSW 18:22:50 10° NW visible
17 Dec 5.6 05:16:08 10° NNE 05:21:28 55° ESE 05:26:49 10° S visible
18 Dec 6.3 05:03:59 10° NE 05:09:02 40° ESE 05:14:07 10° S visible
19 Dec 6.9 04:51:59 10° NE 04:56:38 29° ESE 05:01:16 10° SSE visible
20 Dec 7.4 04:40:15 10° NE 04:44:13 21° ESE 04:48:11 10° SSE visible
21 Dec 7.7 04:28:53 10° ENE 04:31:48 15° ESE 04:34:44 10° SE visible
21 Dec 8.2 18:54:46 10° WSW 18:56:13 11° WSW 18:57:39 10° W visible
22 Dec 7.8 18:40:34 10° SW 18:43:49 16° WSW 18:47:04 10° WNW visible
23 Dec 7.5 18:27:13 10° SSW 18:31:25 22° WSW 18:35:35 10° NW visible
